[[{"header":{"parameterUnit":"m.s-1","parameterCategory":1,"la1":30.2991,"la2":30.254,"lo1":-89.0895,"lo2":-89.0444,"dy":0.0017,"dx":0.0017,"nx":28,"ny":28,"refTime":"2024-04-28T09:00:00:Z","depth":0,"parameterNumber":2,"parameterNumberName":"U-component_of_WINDS"},"data":[0,0,0,0,0,0,0,0,0,0,0,0,0,0,0,0,0,0,0,0,0,0,0,0,0,0,0,0,0,0,0,0,0,0,0,0,0,0,0,0,0,0,0,0,0,0,0,0,0,0,0,0,0,0,0,0,0,0,-5.2363,-5.2364,0,-5.2503,-5.2504,-5.2506,-5.2515,-5.2514,-5.2512,-5.2511,-5.2652,-5.2657,-5.2662,0,0,0,0,0,0,0,0,0,0,0,0,0,-5.2104,-5.2109,-5.2363,-5.2365,-5.2366,-5.2502,-5.2504,-5.2506,-5.2516,-5.2514,-5.2512,-5.251,-5.265,-5.2656,-5.2662,0,0,0,0,0,0,0,0,0,0,0,0,0,-5.2227,-5.211,-5.2362,-5.2387,-5.2391,-5.2502,-5.2504,-5.2507,-5.2516,-5.2514,-5.2511,-5.2509,-5.2648,-5.2656,-5.2663,-5.2758,0,0,-5.2687,-5.2691,0,0,0,0,0,0,0,0,-5.222,-5.2237,-5.2382,-5.2386,-5.239,-5.2489,-5.2465,-5.2591,-5.2517,-5.2469,-5.2511,-5.2508,-5.2599,-5.2611,-5.2642,-5.2765,-5.2771,-5.2688,-5.2693,-5.2696,-5.2698,0,0,0,0,0,0,0,-5.2212,-5.2231,-5.2418,-5.2384,-5.2389,-5.2392,-5.2407,-5.2489,-5.2545,-5.2473,-5.2474,-5.249,-5.2601,-5.2635,-5.2646,-5.2773,-5.2688,-5.2695,-5.2699,-5.2702,-5.298,-5.2983,0,0,0,0,0,0,-5.2198,-5.2224,-5.2414,-5.2422,-5.2298,-5.2398,-5.2415,-5.246,-5.2544,-5.2555,-5.2492,-5.249,-5.2623,-5.2637,-5.2651,-5.2766,-5.2696,-5.2703,-5.2708,-5.2978,-5.2981,-5.2984,0,0,0,0,0,0,-5.2193,-5.2215,-5.2408,-5.2323,-5.2348,-5.2405,-5.2455,-5.2464,-5.2497,-5.2559,-5.2569,-5.2516,-5.2621,-5.264,-5.2732,-5.2771,-5.2707,-5.2714,-5.2975,-5.2979,-5.2982,-5.2999,0,0,0,0,0,0,-5.2185,-5.2213,-5.225,-5.2324,-5.2352,-5.2486,-5.2458,-5.2468,-5.2511,-5.251,-5.2584,-5.2594,-5.2621,-5.272,-5.2739,-5.2781,-5.272,-5.2971,-5.2976,-5.2981,-5.2995,-5.3003,-5.301,0,0,0,0,0,-5.2176,-5.2248,-5.2251,-5.2274,-5.2399,-5.2489,-5.2505,-5.2535,-5.2514,-5.2551,-5.2591,-5.2592,-5.2765,-5.2729,-5.2751,-5.2796,-5.2969,-5.2975,-5.2981,-5.2992,-5.3001,-5.301,0,0,0,0,0,0,-5.2176,-5.2258,-5.2263,-5.2361,-5.2418,-5.249,-5.2537,-5.2544,-5.2607,-5.2603,-5.2637,-5.2654,-5.2745,-5.278,-5.2739,-5.2892,-5.2864,-5.2875,-5.2865,-5.2875,-5.2882,-5.287,-5.2726,0,0,0,0,0,-5.2188,-5.2254,-5.2322,-5.2402,-5.2431,-5.248,-5.2519,-5.2538,-5.2598,-5.2621,-5.2668,-5.2726,-5.2793,-5.2837,-5.2902,-5.3002,-5.3017,-5.3043,-5.3051,-5.3057,-5.3064,-5.3119,-5.3131,-5.3004,-5.3004,-5.3004,0,0,-5.2211,-5.2265,-5.2304,-5.2404,-5.245,-5.2517,-5.2499,-5.2571,-5.2621,-5.2632,-5.2721,-5.2758,-5.2825,-5.2921,-5.2965,-5.2953,-5.3104,-5.3064,-5.3069,-5.3073,-5.3127,-5.3139,-5.3149,-5.3008,-5.3007,-5.3007,0,0,-5.2289,-5.2337,-5.2409,-5.2456,-5.2527,-5.2559,-5.2576,-5.2648,-5.2673,-5.2764,-5.2774,-5.2834,-5.295,-5.2997,-5.3036,-5.3134,-5.3137,-5.3155,-5.3193,-5.3246,-5.3256,-5.3265,-5.3298,-5.331,-5.3163,-5.3164,-5.3164,0,-5.2309,-5.2411,-5.2445,-5.2517,-5.256,-5.2575,-5.2648,-5.2692,-5.278,-5.2809,-5.2795,-5.2941,-5.2987,-5.3094,-5.3118,-5.315,-5.317,-5.3145,-5.3252,-5.3261,-5.327,-5.3302,-5.3315,-5.3165,-5.3165,-5.3165,-5.3165,0,-5.2433,-5.2503,-5.2553,-5.2638,-5.2688,-5.276,-5.2804,-5.285,-5.2865,-5.2899,-5.2991,-5.3048,-5.3125,-5.3153,-5.3168,-5.3262,-5.3252,-5.3245,-5.3217,-5.3283,-5.3314,-5.3327,-5.3167,-5.3167,-5.3166,-5.3166,0,0,-5.251,-5.2615,-5.2633,-5.2672,-5.2752,-5.2807,-5.2881,-5.2957,-5.2995,-5.3057,-5.3118,-5.3217,-5.3211,-5.3255,-5.3277,-5.3324,-5.3397,-5.331,-5.3312,-5.3322,-5.3503,-5.3506,-5.3519,-5.3401,-5.3403,-5.3405,-5.3496,0,-5.2595,-5.2725,-5.2758,-5.2869,-5.2935,-5.2952,-5.3016,-5.3072,-5.3106,-5.3167,-5.3205,-5.3274,-5.3262,-5.3289,-5.3336,-5.3377,-5.3433,-5.3372,-5.3456,-5.3459,-5.3436,-5.3536,-5.3539,-5.3622,-5.3509,-5.3511,-5.3513,0,-5.271,-5.2775,-5.2892,-5.2965,-5.2994,-5.305,-5.3123,-5.3182,-5.3246,-5.3268,-5.3319,-5.3336,-5.3413,-5.3384,-5.349,-5.3448,-5.3486,-5.3512,-5.3516,-5.3522,-5.3487,-5.3542,-5.365,-5.3661,-5.3532,-5.3531,-5.3529,0,-5.2752,-5.2869,-5.2954,-5.2988,-5.3075,-5.3114,-5.3153,-5.3215,-5.3259,-5.3324,-5.3353,-5.3425,-5.3464,-5.352,-5.3556,-5.3532,-5.3659,-5.3633,-5.3678,-5.3677,-5.3701,-5.3698,-5.3813,-5.373,-5.373,-5.373,-5.3729,0,-5.2842,-5.2912,-5.2975,-5.3027,-5.3107,-5.3145,-5.3223,-5.3262,-5.3318,-5.3378,-5.3398,-5.3454,-5.35,-5.3562,-5.3591,-5.3674,-5.3692,-5.3711,-5.3718,-5.3708,-5.3705,-5.373,-5.3724,-5.3733,-5.3732,-5.3732,-5.3731,0,-5.2901,-5.2945,-5.3039,-5.3115,-5.3136,-5.3191,-5.3256,-5.3308,-5.3344,-5.342,-5.344,-5.3497,-5.3571,-5.3614,-5.3708,-5.3728,-5.3819,-5.3824,-5.3796,-5.3799,-5.384,-5.3835,-5.3972,-5.3992,-5.3898,-5.3899,-5.39,0,-5.2953,-5.3008,-5.309,-5.3132,-5.3171,-5.3239,-5.3284,-5.3325,-5.3371,-5.345,-5.3492,-5.3568,-5.363,-5.3749,-5.3798,-5.387,-5.3875,-5.3919,-5.3886,-5.3874,-5.3873,-5.3868,-5.3873,-5.3923,-5.3924,-5.3925,-5.3925,0,-5.3041,-5.3061,-5.3126,-5.3199,-5.3253,-5.3313,-5.3372,-5.3405,-5.3456,-5.3507,-5.3584,-5.3633,-5.3729,-5.3804,-5.388,-5.392,-5.3931,-5.3936,-5.395,-5.3938,-5.3919,-5.3928,-5.3809,-5.3931,-5.3931,-5.393,-5.393,-5.393,-5.3097,-5.3146,-5.3212,-5.3284,-5.3333,-5.3389,-5.344,-5.3484,-5.3549,-5.363,-5.3652,-5.3732,-5.3796,-5.39,-5.3942,-5.4005,-5.3998,-5.4018,-5.4023,-5.4026,-5.4026,-5.3912,-5.402,-5.402,-5.402,-5.4019,-5.4019,0,-5.3184,-5.3228,-5.3294,-5.3376,-5.3433,-5.3441,-5.3507,-5.3553,-5.3624,-5.3684,-5.3745,-5.3834,-5.3907,-5.3963,-5.4038,-5.4078,-5.4085,-5.4096,-5.4092,-5.4101,-5.403,-5.4009,-5.4089,-5.4089,-5.4089,-5.4089,-5.4089,-5.4089,-5.3235,-5.3319,-5.3347,-5.3456,-5.35,-5.3578,-5.3616,-5.3667,-5.3714,-5.3812,-5.3873,-5.391,-5.3969,-5.4049,-5.4116,-5.4131,-5.4156,-5.4166,-5.4182,-5.4114,-5.4106,-5.4098,-5.4079,-5.4172,-5.4172,-5.4247,-5.4247,-5.4248]},{"header":{"parameterUnit":"m.s-1","parameterCategory":1,"la1":30.2991,"la2":30.254,"lo1":-89.0895,"lo2":-89.0444,"dy":0.0017,"dx":0.0017,"nx":28,"ny":28,"refTime":"2024-04-28T09:00:00:Z","depth":0,"parameterNumber":3,"parameterNumberName":"V-component_of_WINDS"},"data":[0,0,0,0,0,0,0,0,0,0,0,0,0,0,0,0,0,0,0,0,0,0,0,0,0,0,0,0,0,0,0,0,0,0,0,0,0,0,0,0,0,0,0,0,0,0,0,0,0,0,0,0,0,0,0,0,0,0,4.6319,4.6319,0,4.6348,4.6348,4.6348,4.6333,4.6333,4.6332,4.6331,4.6358,4.6359,4.6361,0,0,0,0,0,0,0,0,0,0,0,0,0,4.6249,4.6251,4.6319,4.6319,4.632,4.6348,4.6348,4.6348,4.6333,4.6332,4.6332,4.6331,4.6357,4.6359,4.6361,0,0,0,0,0,0,0,0,0,0,0,0,0,4.6279,4.6251,4.6319,4.6315,4.6315,4.6348,4.6348,4.6349,4.6334,4.6332,4.6331,4.633,4.6357,4.6359,4.6361,4.6397,0,0,4.6368,4.6369,0,0,0,0,0,0,0,0,4.6277,4.6281,4.6316,4.6316,4.6316,4.6336,4.6333,4.6365,4.6334,4.6327,4.6331,4.633,4.6351,4.6354,4.6362,4.6398,4.64,4.6368,4.6369,4.637,4.6371,0,0,0,0,0,0,0,4.6275,4.628,4.633,4.6316,4.6316,4.6312,4.6315,4.6339,4.6345,4.6327,4.6326,4.633,4.6351,4.636,4.6362,4.64,4.6368,4.637,4.6371,4.6372,4.647,4.6471,0,0,0,0,0,0,4.6274,4.6279,4.6329,4.6331,4.6293,4.6314,4.6318,4.633,4.6345,4.6346,4.6331,4.6329,4.6357,4.636,4.6363,4.6408,4.637,4.6372,4.6373,4.6469,4.647,4.6472,0,0,0,0,0,0,4.6272,4.6278,4.6328,4.6305,4.6311,4.6317,4.6331,4.6332,4.634,4.6348,4.6348,4.6339,4.6356,4.636,4.639,4.6408,4.6373,4.6375,4.6467,4.6469,4.6471,4.6496,0,0,0,0,0,0,4.627,4.6278,4.6292,4.6305,4.6312,4.6354,4.6332,4.6333,4.6344,4.6342,4.6355,4.6356,4.6355,4.6386,4.6392,4.6411,4.6377,4.6465,4.6468,4.647,4.6494,4.6499,4.6503,0,0,0,0,0,4.6268,4.6297,4.6293,4.6299,4.633,4.6355,4.6359,4.6359,4.6346,4.636,4.6365,4.6356,4.6406,4.639,4.6395,4.6415,4.6464,4.6467,4.647,4.6492,4.6498,4.6503,0,0,0,0,0,0,4.6284,4.6298,4.6294,4.6328,4.6341,4.6353,4.637,4.6365,4.6381,4.6378,4.6376,4.6379,4.641,4.6415,4.6397,4.6452,4.6433,4.6437,4.6447,4.6453,4.6458,4.6456,4.6378,0,0,0,0,0,4.6291,4.6312,4.6323,4.6352,4.6359,4.6364,4.6375,4.6374,4.6387,4.6392,4.6399,4.6411,4.6429,4.6442,4.6459,4.6495,4.6498,4.6511,4.6516,4.652,4.6524,4.6545,4.6551,4.6481,4.6481,4.6481,0,0,4.6307,4.6318,4.633,4.6356,4.6366,4.6387,4.6368,4.6391,4.6407,4.6395,4.6424,4.6429,4.6443,4.6476,4.6491,4.6482,4.6544,4.6524,4.6527,4.6528,4.6548,4.6555,4.6561,4.6484,4.6483,4.6483,0,0,4.6347,4.6356,4.6383,4.6394,4.6409,4.6413,4.6419,4.6433,4.6437,4.6466,4.6458,4.6476,4.6508,4.6519,4.6528,4.6574,4.6567,4.658,4.6605,4.6625,4.6631,4.6635,4.6653,4.6659,4.6584,4.6584,4.6584,0,4.6364,4.6396,4.6396,4.6421,4.6433,4.6424,4.6451,4.6461,4.6481,4.649,4.6479,4.652,4.6529,4.6565,4.6577,4.6584,4.6592,4.6578,4.663,4.6635,4.6639,4.6656,4.6662,4.6585,4.6585,4.6585,4.6585,0,4.6417,4.644,4.6459,4.6481,4.6495,4.652,4.6524,4.6538,4.6536,4.6541,4.6571,4.6582,4.6602,4.661,4.6607,4.6647,4.6641,4.663,4.6611,4.6648,4.6663,4.6669,4.6588,4.6587,4.6587,4.6586,0,0,4.6466,4.649,4.6497,4.6508,4.6525,4.6543,4.6568,4.6589,4.6602,4.6616,4.6638,4.6666,4.6657,4.6668,4.6667,4.6685,4.6722,4.6672,4.6672,4.6682,4.6768,4.6776,4.6783,4.6718,4.6719,4.672,4.6767,0,4.6508,4.6553,4.6555,4.6597,4.6618,4.6612,4.6634,4.6648,4.6653,4.6672,4.6677,4.6698,4.6684,4.6691,4.6708,4.6714,4.674,4.6711,4.6738,4.6738,4.6735,4.6791,4.68,4.6843,4.6773,4.6774,4.6774,0,4.6562,4.6581,4.6625,4.6642,4.6651,4.6671,4.6692,4.671,4.6725,4.6728,4.6741,4.6738,4.6764,4.6744,4.678,4.6761,4.6772,4.6777,4.6778,4.6781,4.6759,4.6796,4.6857,4.6864,4.6784,4.6783,4.6782,0,4.6595,4.6631,4.6662,4.6671,4.6692,4.6706,4.6715,4.6729,4.6743,4.676,4.6769,4.6789,4.68,4.6816,4.6818,4.6803,4.6855,4.6835,4.6858,4.6858,4.6869,4.6868,4.6934,4.6876,4.6875,4.6875,4.6875,0,4.6641,4.6669,4.6678,4.6697,4.6728,4.673,4.6761,4.6768,4.6782,4.6802,4.6797,4.6817,4.6819,4.6839,4.684,4.6871,4.6875,4.6878,4.6879,4.6879,4.6879,4.6887,4.6884,4.6877,4.6877,4.6876,4.6876,0,4.6683,4.669,4.6724,4.6742,4.6747,4.6769,4.6783,4.6802,4.6807,4.6834,4.684,4.6849,4.6872,4.6876,4.6903,4.6905,4.6941,4.6938,4.6937,4.6936,4.6959,4.6958,4.7032,4.7042,4.6977,4.6978,4.6978,0,4.6712,4.6734,4.6754,4.6769,4.6779,4.6802,4.6816,4.6819,4.6834,4.6855,4.6871,4.6894,4.6913,4.6951,4.6959,4.698,4.6978,4.7003,4.6981,4.6981,4.6979,4.6978,4.6981,4.7007,4.7008,4.7008,4.7009,0,4.6765,4.6768,4.6789,4.6812,4.683,4.6848,4.6865,4.6877,4.6882,4.6899,4.6924,4.6939,4.6968,4.6991,4.7013,4.7021,4.7016,4.7016,4.7022,4.7023,4.7022,4.7024,4.6949,4.7014,4.7013,4.7013,4.7013,4.7012,4.6802,4.6821,4.684,4.6864,4.6878,4.6894,4.6913,4.6922,4.6943,4.6968,4.6969,4.6996,4.7012,4.7041,4.7051,4.7072,4.7064,4.7074,4.7076,4.7078,4.7081,4.7018,4.7076,4.7076,4.7076,4.7076,4.7076,0,4.6855,4.6867,4.6889,4.6914,4.6934,4.6929,4.6948,4.6964,4.6989,4.7005,4.7025,4.7054,4.7077,4.7088,4.7111,4.7126,4.7124,4.7132,4.7131,4.7133,4.7086,4.7079,4.7133,4.7133,4.7133,4.7133,4.7133,4.7133,4.6884,4.6918,4.6923,4.6964,4.6975,4.7003,4.7015,4.703,4.7043,4.7077,4.7097,4.7104,4.7118,4.7142,4.7164,4.7166,4.7175,4.7184,4.7186,4.7142,4.7136,4.7131,4.7124,4.7186,4.7186,4.723,4.7231,4.7231]}]]